timestamp,wind_dir_avg,wind_spd_max_dir,wind_spd_avg,wind_spd_gust,battery_voltage,lat,long
2018-04-22 00:00:00+00:00,274.0,272.0,7.56,9.11,,47.59359,-54.27349
2018-04-22 00:10:00+00:00,275.0,274.0,8.09,9.16,,47.59359,-54.27349
2018-04-22 00:20:00+00:00,279.0,275.0,8.72,10.2,,47.59359,-54.27349
2018-04-22 00:30:00+00:00,282.0,280.0,7.6,8.91,,47.59359,-54.27349
2018-04-22 00:40:00+00:00,284.0,286.0,8.29,10.0,,47.59359,-54.27349
2018-04-22 00:50:00+00:00,284.0,287.0,8.1,9.45,,47.59359,-54.27349
2018-04-22 01:00:00+00:00,284.0,292.0,8.04,9.46,,47.59359,-54.27349
2018-04-22 01:10:00+00:00,290.0,295.0,8.32,9.77,,47.59359,-54.27349
2018-04-22 01:20:00+00:00,284.0,287.0,7.49,8.68,,47.59359,-54.27349
2018-04-22 01:30:00+00:00,283.0,284.0,8.05,9.35,,47.59359,-54.27349
2018-04-22 01:40:00+00:00,274.0,277.0,7.57,9.02,,47.59359,-54.27349
2018-04-22 01:50:00+00:00,279.0,267.0,7.9,9.41,,47.59359,-54.27349
2018-04-22 02:00:00+00:00,283.0,290.0,7.17,8.48,,47.59359,-54.27349
2018-04-22 02:10:00+00:00,273.0,277.0,6.6,7.92,,47.59359,-54.27349
2018-04-22 02:20:00+00:00,267.0,273.0,6.15,7.46,,47.59359,-54.27349
2018-04-22 02:30:00+00:00,270.0,272.0,5.62,6.94,,47.59359,-54.27349
2018-04-22 02:40:00+00:00,280.0,288.0,5.95,6.59,,47.59359,-54.27349
2018-04-22 02:50:00+00:00,284.0,283.0,6.71,8.05,,47.59359,-54.27349
2018-04-22 03:00:00+00:00,277.0,283.0,6.45,7.53,,47.59359,-54.27349
2018-04-22 03:10:00+00:00,272.0,276.0,6.0,6.78,,47.59359,-54.27349
2018-04-22 03:20:00+00:00,289.0,291.0,6.2,7.23,,47.59359,-54.27349
2018-04-22 03:30:00+00:00,284.0,279.0,5.4,6.52,,47.59359,-54.27349
2018-04-22 03:40:00+00:00,285.0,283.0,5.52,6.5,,47.59359,-54.27349
2018-04-22 03:50:00+00:00,288.0,292.0,4.92,5.73,,47.59359,-54.27349
2018-04-22 04:00:00+00:00,306.0,306.0,5.68,6.42,,47.59359,-54.27349
2018-04-22 04:10:00+00:00,312.0,313.0,8.42,9.41,,47.59359,-54.27349
2018-04-22 04:20:00+00:00,307.0,305.0,7.94,9.13,,47.59359,-54.27349
2018-04-22 04:30:00+00:00,306.0,304.0,7.54,8.62,,47.59359,-54.27349
2018-04-22 04:40:00+00:00,315.0,315.0,7.4,8.1,,47.59359,-54.27349
2018-04-22 04:50:00+00:00,316.0,322.0,7.18,8.1,,47.59359,-54.27349
2018-04-22 05:00:00+00:00,311.0,309.0,7.42,8.89,,47.59359,-54.27349
2018-04-22 05:10:00+00:00,310.0,308.0,7.35,8.03,,47.59359,-54.27349
2018-04-22 05:20:00+00:00,312.0,312.0,7.3,7.8,,47.59359,-54.27349
2018-04-22 05:30:00+00:00,306.0,307.0,6.12,7.07,,47.59359,-54.27349
2018-04-22 05:40:00+00:00,305.0,306.0,6.25,6.95,,47.59359,-54.27349
2018-04-22 05:50:00+00:00,304.0,304.0,7.16,7.68,,47.59359,-54.27349
2018-04-22 06:00:00+00:00,305.0,307.0,6.76,7.43,,47.59359,-54.27349
2018-04-22 06:10:00+00:00,305.0,304.0,6.27,6.84,,47.59359,-54.27349
2018-04-22 06:20:00+00:00,302.0,303.0,7.08,8.07,,47.59359,-54.27349
2018-04-22 06:30:00+00:00,299.0,296.0,7.24,7.98,,47.59359,-54.27349
2018-04-22 06:40:00+00:00,301.0,295.0,7.15,8.42,,47.59359,-54.27349
2018-04-22 06:50:00+00:00,304.0,307.0,7.68,8.66,,47.59359,-54.27349
2018-04-22 07:00:00+00:00,301.0,293.0,7.08,8.33,,47.59359,-54.27349
2018-04-22 07:10:00+00:00,297.0,297.0,7.12,8.0,,47.59359,-54.27349
2018-04-22 07:20:00+00:00,290.0,295.0,6.13,7.08,,47.59359,-54.27349
2018-04-22 07:30:00+00:00,293.0,298.0,6.16,7.17,,47.59359,-54.27349
2018-04-22 07:40:00+00:00,296.0,300.0,6.1,6.61,,47.59359,-54.27349
2018-04-22 07:50:00+00:00,290.0,295.0,6.35,7.61,,47.59359,-54.27349
2018-04-22 08:00:00+00:00,289.0,296.0,5.92,6.77,,47.59359,-54.27349
2018-04-22 08:10:00+00:00,297.0,301.0,5.74,6.51,,47.59359,-54.27349
2018-04-22 08:20:00+00:00,299.0,300.0,6.27,7.07,,47.59359,-54.27349
2018-04-22 08:30:00+00:00,300.0,299.0,5.73,6.37,,47.59359,-54.27349
2018-04-22 08:40:00+00:00,293.0,294.0,5.53,6.18,,47.59359,-54.27349
2018-04-22 08:50:00+00:00,291.0,291.0,6.57,7.71,,47.59359,-54.27349
2018-04-22 09:00:00+00:00,287.0,286.0,6.0,6.73,,47.59359,-54.27349
2018-04-22 09:10:00+00:00,274.0,276.0,5.53,6.05,,47.59359,-54.27349
2018-04-22 09:20:00+00:00,280.0,273.0,5.35,6.02,,47.59359,-54.27349
2018-04-22 09:30:00+00:00,279.0,276.0,5.37,6.24,,47.59359,-54.27349
2018-04-22 09:40:00+00:00,275.0,278.0,4.88,5.38,,47.59359,-54.27349
2018-04-22 09:50:00+00:00,275.0,274.0,5.09,5.65,,47.59359,-54.27349
2018-04-22 10:00:00+00:00,277.0,279.0,4.35,4.96,,47.59359,-54.27349
2018-04-22 10:10:00+00:00,277.0,278.0,5.16,5.97,,47.59359,-54.27349
2018-04-22 10:20:00+00:00,287.0,290.0,5.22,6.23,,47.59359,-54.27349
2018-04-22 10:30:00+00:00,295.0,295.0,5.54,6.19,,47.59359,-54.27349
2018-04-22 10:40:00+00:00,297.0,298.0,5.65,6.65,,47.59359,-54.27349
2018-04-22 10:50:00+00:00,314.0,319.0,6.55,7.84,,47.59359,-54.27349
2018-04-22 11:00:00+00:00,309.0,303.0,7.87,9.22,,47.59359,-54.27349
2018-04-22 11:10:00+00:00,306.0,305.0,9.23,10.47,,47.59359,-54.27349
2018-04-22 11:20:00+00:00,304.0,304.0,8.49,9.59,,47.59359,-54.27349
2018-04-22 11:30:00+00:00,320.0,317.0,7.06,8.3,,47.59359,-54.27349
2018-04-22 11:40:00+00:00,323.0,327.0,5.14,5.97,,47.59359,-54.27349
2018-04-22 11:50:00+00:00,319.0,320.0,5.11,6.03,,47.59359,-54.27349
2018-04-22 12:00:00+00:00,302.0,302.0,4.96,5.67,,47.59359,-54.27349
2018-04-22 12:10:00+00:00,297.0,302.0,6.56,7.15,,47.59359,-54.27349
2018-04-22 12:20:00+00:00,296.0,295.0,6.29,7.08,,47.59359,-54.27349
2018-04-22 12:30:00+00:00,288.0,290.0,5.16,5.65,,47.59359,-54.27349
2018-04-22 12:40:00+00:00,308.0,314.0,4.1,5.06,,47.59359,-54.27349
2018-04-22 12:50:00+00:00,306.0,302.0,5.12,5.66,,47.59359,-54.27349
2018-04-22 13:00:00+00:00,269.0,280.0,3.46,4.27,,47.59359,-54.27349
2018-04-22 13:10:00+00:00,283.0,285.0,3.79,4.42,,47.59359,-54.27349
2018-04-22 13:20:00+00:00,288.0,288.0,4.51,4.95,,47.59359,-54.27349
2018-04-22 13:30:00+00:00,289.0,291.0,4.31,4.78,,47.59359,-54.27349
2018-04-22 13:40:00+00:00,280.0,282.0,4.58,5.44,,47.59359,-54.27349
2018-04-22 13:50:00+00:00,254.0,259.0,4.37,5.23,,47.59359,-54.27349
2018-04-22 14:00:00+00:00,248.0,247.0,4.88,5.26,,47.59359,-54.27349
2018-04-22 14:10:00+00:00,264.0,264.0,5.74,6.02,,47.59359,-54.27349
2018-04-22 14:20:00+00:00,262.0,265.0,4.63,5.44,,47.59359,-54.27349
2018-04-22 14:30:00+00:00,236.0,234.0,4.74,6.0,,47.59359,-54.27349
2018-04-22 14:40:00+00:00,249.0,253.0,3.93,4.28,,47.59359,-54.27349
2018-04-22 14:50:00+00:00,244.0,241.0,4.57,5.11,,47.59359,-54.27349
2018-04-22 15:00:00+00:00,246.0,249.0,4.94,5.48,,47.59359,-54.27349
2018-04-22 15:10:00+00:00,240.0,243.0,4.74,5.16,,47.59359,-54.27349
2018-04-22 15:20:00+00:00,255.0,267.0,4.56,5.55,,47.59359,-54.27349
2018-04-22 15:30:00+00:00,224.0,216.0,3.78,5.17,,47.59359,-54.27349
2018-04-22 15:40:00+00:00,227.0,226.0,5.33,6.04,,47.59359,-54.27349
2018-04-22 15:50:00+00:00,225.0,224.0,5.77,6.61,,47.59359,-54.27349
2018-04-22 16:00:00+00:00,222.0,223.0,6.8,7.86,,47.59359,-54.27349
2018-04-22 16:10:00+00:00,222.0,223.0,6.62,7.37,,47.59359,-54.27349
2018-04-22 16:20:00+00:00,219.0,219.0,7.17,8.08,,47.59359,-54.27349
2018-04-22 16:30:00+00:00,221.0,224.0,7.03,7.57,,47.59359,-54.27349
2018-04-22 16:40:00+00:00,217.0,219.0,6.86,7.41,,47.59359,-54.27349
2018-04-22 16:50:00+00:00,221.0,223.0,6.64,7.05,,47.59359,-54.27349
2018-04-22 17:00:00+00:00,217.0,218.0,6.41,6.74,,47.59359,-54.27349
2018-04-22 17:10:00+00:00,217.0,216.0,6.6,6.98,,47.59359,-54.27349
2018-04-22 17:20:00+00:00,219.0,220.0,6.4,6.82,,47.59359,-54.27349
2018-04-22 17:30:00+00:00,218.0,220.0,4.98,5.64,,47.59359,-54.27349
2018-04-22 17:40:00+00:00,222.0,221.0,5.23,5.65,,47.59359,-54.27349
2018-04-22 17:50:00+00:00,219.0,223.0,5.31,5.6,,47.59359,-54.27349
2018-04-22 18:00:00+00:00,223.0,218.0,6.53,7.42,,47.59359,-54.27349
2018-04-22 18:10:00+00:00,222.0,224.0,7.1,7.79,,47.59359,-54.27349
2018-04-22 18:20:00+00:00,218.0,221.0,6.4,6.9,,47.59359,-54.27349
2018-04-22 18:30:00+00:00,223.0,222.0,7.22,7.75,,47.59359,-54.27349
2018-04-22 18:40:00+00:00,223.0,226.0,6.69,7.53,,47.59359,-54.27349
2018-04-22 18:50:00+00:00,222.0,224.0,7.39,8.33,,47.59359,-54.27349
2018-04-22 19:00:00+00:00,219.0,219.0,7.08,7.58,,47.59359,-54.27349
2018-04-22 19:10:00+00:00,217.0,216.0,7.38,7.91,,47.59359,-54.27349
2018-04-22 19:20:00+00:00,210.0,212.0,6.78,7.54,,47.59359,-54.27349
2018-04-22 19:30:00+00:00,214.0,215.0,6.71,7.34,,47.59359,-54.27349
2018-04-22 19:40:00+00:00,211.0,213.0,7.05,7.71,,47.59359,-54.27349
2018-04-22 19:50:00+00:00,215.0,214.0,7.31,7.89,,47.59359,-54.27349
2018-04-22 20:00:00+00:00,218.0,220.0,6.26,6.83,,47.59359,-54.27349
2018-04-22 20:10:00+00:00,215.0,213.0,6.82,7.46,,47.59359,-54.27349
2018-04-22 20:20:00+00:00,213.0,207.0,7.06,7.93,,47.59359,-54.27349
2018-04-22 20:30:00+00:00,211.0,212.0,6.91,7.94,,47.59359,-54.27349
2018-04-22 20:40:00+00:00,213.0,213.0,7.03,7.84,,47.59359,-54.27349
2018-04-22 20:50:00+00:00,215.0,212.0,7.63,8.69,,47.59359,-54.27349
2018-04-22 21:00:00+00:00,214.0,211.0,6.55,7.19,,47.59359,-54.27349
2018-04-22 21:10:00+00:00,227.0,228.0,6.85,8.01,,47.59359,-54.27349
2018-04-22 21:20:00+00:00,236.0,235.0,5.65,6.41,,47.59359,-54.27349
2018-04-22 21:30:00+00:00,256.0,255.0,5.21,6.26,,47.59359,-54.27349
2018-04-22 21:40:00+00:00,249.0,257.0,5.93,6.68,,47.59359,-54.27349
2018-04-22 21:50:00+00:00,270.0,272.0,3.78,5.11,,47.59359,-54.27349
2018-04-22 22:00:00+00:00,259.0,256.0,5.51,6.15,,47.59359,-54.27349
2018-04-22 22:10:00+00:00,257.0,255.0,6.67,8.08,,47.59359,-54.27349
2018-04-22 22:20:00+00:00,256.0,259.0,6.34,6.99,,47.59359,-54.27349
2018-04-22 22:30:00+00:00,242.0,243.0,5.4,6.09,,47.59359,-54.27349
2018-04-22 22:40:00+00:00,253.0,251.0,6.67,7.5,,47.59359,-54.27349
2018-04-22 22:50:00+00:00,254.0,253.0,7.24,8.17,,47.59359,-54.27349
2018-04-22 23:00:00+00:00,255.0,257.0,7.06,7.89,,47.59359,-54.27349
2018-04-22 23:10:00+00:00,258.0,257.0,7.42,8.08,,47.59359,-54.27349
2018-04-22 23:20:00+00:00,254.0,254.0,7.01,7.69,,47.59359,-54.27349
2018-04-22 23:30:00+00:00,258.0,258.0,6.21,6.6,,47.59359,-54.27349
2018-04-22 23:40:00+00:00,252.0,249.0,6.08,6.51,,47.59359,-54.27349
2018-04-22 23:50:00+00:00,256.0,255.0,5.64,6.09,,47.59359,-54.27349
